Hourly Weather Roundup
Issued by NWS Central Illinois

Home | Current Version | Previous Version | Graphics & Text | Print | Product List | Glossary On
Versions: 1 2 3 4 5 6 7 8 9 10 11 12 13 14 15 16 17 18 19 20 21 22 23 24 25 26 27 28 29 30 31 32 33 34 35 36 37 38 39 40 41 42 43 44 45 46 47 48 49 50
000
NZUS43 KILX 301610
HWRILX

AREA WEATHER ROUNDUP
NATIONAL WEATHER SERVICE, LINCOLN IL
1100 AM CDT THU JUL 30 2015


CITY           SKY/WX    TMP DP  RH WIND       PRES   REMARKS
BLOOMINGTON    SUNNY     81  64  55 NW9       30.15R HX  82
CHAMPAIGN      SUNNY     81  65  58 NW8       30.14R HX  83
DANVILLE       SUNNY     80  65  59 NW6       30.10R HX  81
DECATUR        SUNNY     83  60  45 NW13      30.15R HX  83
EFFINGHAM      SUNNY     82  57  42 W10       30.17R HX  82
FLORA          SUNNY     81  61  50 N7        30.16R HX  82
GALESBURG      SUNNY     79  64  59 W6        30.14S HX  80
JACKSONVILLE   SUNNY     83  63  50 NW7       30.16S HX  84
LACON          SUNNY     79  62  56 NW6       30.11S HX  80
LAWRENCEVILLE  SUNNY     82  62  50 N9        30.14R HX  83
LITCHFIELD     SUNNY     81  63  53 NW7       30.17S HX  82
$$


CITY           SKY/WX    TMP DP  RH WIND       PRES   REMARKS
LINCOLN        SUNNY     83  61  46 NW6       30.14R HX  84
MACOMB         SUNNY     80  61  52 NW10      30.18R HX  81
MATTOON        SUNNY     83  59  44 N12       30.14R HX  83
MT CARMEL AP   SUNNY     82  61  47 NW7       30.14R HX  83
OLNEY-NOBLE AP SUNNY     81  63  54 N9        30.15S HX  82
PARIS          SUNNY     82  63  52 NW9       30.14R HX  83
PEORIA         SUNNY     82  64  54 NW6       30.13S HX  83
PONTIAC        SUNNY     80  68  67 NW7       30.13R HX  82
RANTOUL        SUNNY     82  65  55 NW9       30.13R HX  84
ROBINSON       SUNNY     81  64  55 N6        30.15R HX  82
SPRINGFIELD    SUNNY     85  66  53 NW12      30.15S HX  87
TAYLORVILLE    SUNNY     81  63  54 NW6       30.15S HX  82
$$

...REGIONAL REPORTS...


CITY           SKY/WX    TMP DP  RH WIND       PRES   REMARKS
CHICAGO O`HARE SUNNY     82  54  37 NW15      30.06S HX  81
KANKAKEE       SUNNY     80  64  58 W3        30.10S HX  81
MOLINE         SUNNY     81  62  52 W7        30.12R HX  82
MOUNT STERLING NOT AVBL
MOUNT VERNON   SUNNY     82  63  51 NE7       30.16S HX  83
PITTSFIELD     SUNNY     83  60  45 W7        30.19R HX  83
QUINCY         SUNNY     82  60  47 W12       30.18S HX  82
ROCKFORD       SUNNY     83  58  42 W9        30.09S HX  83
$$


CITY           SKY/WX    TMP DP  RH WIND       PRES   REMARKS
BURLINGTON     SUNNY     81  62  52 NW8       30.15S HX  82
CEDAR RAPIDS   SUNNY     77  68  73 SW10      30.13R
DES MOINES     MOSUNNY   83  60  45 W10       30.17R HX  83
KIRKSVILLE     SUNNY     83  61  47 NW9       30.21S HX  83
OTTUMWA        SUNNY     79  62  56 W9        30.16R HX  80
ST LOUIS       MOSUNNY   86  59  39 N3        30.18R HX  85
$$


CITY           SKY/WX    TMP DP  RH WIND       PRES   REMARKS
TERRE HAUTE    SUNNY     81  60  48 NW8       30.13R HX  82
EVANSVILLE     SUNNY     84  61  45 NE10      30.14R HX  84
INDIANAPOLIS   MOSUNNY   82  58  43 NW12      30.10R HX  82
LAFAYETTE      SUNNY     80  60  50 NW8       30.09R HX  81
MADISON        SUNNY     80  58  46 W9G18     30.05R HX  80
MILWAUKEE      SUNNY     83  53  35 NW15G24   30.02S HX  82
$$




USA.gov is the U.S. government's official web portal to all federal, state and local government web resources and services.